CBERS 1 DEB

Satellite information

Favourite Embed

Satellite Type and Status

DEBRISIN ORBIT

Key statistics

Satellite CBERS 1 DEB at a glance.

Uptime

9337

Days in orbit

Revolutions

≈ 14.4

Per day

Orbit

SSO

Sun Synchronous Orbit

Inclination

98.8

Latest

Satellite identification and parameters

Extended collection of information and parameters for CBERS 1 DEB.

Object identification

Identified? True

Debris? True

Object name: CBERS 1 DEB

International designator: 1999-057PB

Object number (NORAD): 30792

Object ID (CCSDS): 30792

Country: PEOPLES REPUBLIC OF CHINA/BRAZIL (CHBZ)

Current information (Y/N): Y

RCS size: SMALL

Orbital parameters

Period: 100.2 minutes

Inclination: 98.8365 deg

SMA: 7146.129 km

Apoapsis: 773.666 km

Periapsis: 762.323 km

RAAN: 120.8049 deg

Eccentricy: 0.0007936

Argument of periapsis: 102.6846 deg

Mean anomaly: 275.9272 deg

Mean motion: 14.37131316 rev/day

Mean motion (dot): 0.00000391 rev/day2

B* drag term: 0.00014709 1/REarth

Two-line elements (TLE)

Creation date: May 7, 2025, 3:14 a.m.

Reference frame: TEME

Reference center: EARTH

Epoch: May 6, 2025, 11:20 p.m. UTC

TLE line 0: 0 CBERS 1 DEB

TLE line 1: 1 30792U 99057PB 25126.97281144 .00000391 00000-0 14709-3 0 9990

TLE line 2: 2 30792 98.8365 120.8049 0007936 102.6846 275.9272 14.37131316953177

Live tracking on map

Real-time ground track for satellite CBERS 1 DEB.

In-orbit conjunctions

A list of the most updated potential collisions computed for object CBERS 1 DEB.

Target Orbit TCA Probability of collision Miss distance Type
FENGYUN 1C DEB SSO 2024-12-24 06:24:47 0.0001267533 122.0 (m) DEBRIS

Associated space launch

The CBERS (China Brazil Earth Resources Satellite) or ZY 1 (Zi Yuan) satellites are designed for global coverage and include cameras to make optical observations and a data collecting system to gather data on the environment. They are unique systems due to the use of on-board sensors which combine features that are especially designed to resolve the broad range of space and time scales involved in the monitoring and preservation of the ecosystem. They are operated jointly by the China Centre for Resources Satellite Data and Application (CRESDA) and the Brazilian INPE (Instituto Nacional de Pesquisas Espaciais, National Institute of Space Research).

CBERS 1 DEB was lifted into orbit during the mission ‘Long March 4B | Zi Yuan 1-1’, on board a Long March 4B space rocket.

The launch took place on Oct. 14, 1999, 3:15 a.m. from Launch Complex 7.

For more information about the launch, click the button.

Launch to space Long March 4B | Zi Yuan 1-1
Long March 4B | Zi Yuan 1-1

Agency: N/A

Status: Launch Successful

Launch date: Oct. 14, 1999, 3:15 a.m. UTC

Rocket: Long March 4B

Launch pad: Launch Complex 7

Location: Taiyuan Satellite Launch Center, People's Republic of China

...

Latest news about this satellite

There are no fresh news available about this satellite. Check back as we update our databases every day.


Newsletter sign-up

Weekly statistics, charts and insights to help you stay on top of the space industry.